User: anonymous   Login
Location: Guferjoch
(46.7462°N, 8.4506°E)
Time: 07:20:31
(UTC+00:00)
Language:

Resurs 1-4 Rocket - Orbit

View from above orbital plane
View from above orbital plane
View from above satellite
View from above satellite

Ground track
Ground track

The orbit data is extracted from the following two-line orbital elements,

1 25400U 98043G   20265.87807499 -.00000005 +00000-0 +16015-4 0  9995
2 25400 098.6109 200.0450 0010914 057.4843 302.7389 14.25460787154751
Epoch (UTC): 21 September 2020 21:04:25
Eccentricity: 0.0010914
inclination: 98.6109°
perigee height: 799 km
apogee height: 815 km
right ascension of ascending node: 200.0450°
argument of perigee: 57.4843°
revolutions per day: 14.25460787
mean anomaly at epoch: 302.7389°
orbit number at epoch: 15475

The dashed part of the orbit path shows where the satellite is in the earth's shadow,  

DLR